Location: Poughquag
(41.6090°N, 73.6820°W)
Time: 15:33:05
(UTC-04:00)

KKS-1 - Visible Passes

Search period start: 16 July 2024 00:00
Search period end: 26 July 2024 00:00
Orbit: 626 x 639 km, 98.1° (Epoch: 16 July)

Date Brightness Start Highest point End Pass type
(mag) Time Alt. Az. Time Alt. Az. Time Alt. Az.
16 Jul ? 00:45:46 10° N 00:49:41 48° NW 00:49:41 48° NW visible
16 Jul ? 23:31:07 10° NE 23:33:36 22° ENE 23:33:36 22° ENE visible
17 Jul ? 01:07:13 10° N 01:11:02 30° WNW 01:11:02 30° WNW visible
17 Jul ? 23:51:50 10° NNE 23:54:57 35° ENE 23:54:57 35° ENE visible
18 Jul ? 01:28:56 10° NNW 01:32:02 19° WNW 01:32:22 19° WNW visible
19 Jul ? 00:12:47 10° NNE 00:16:17 53° NE 00:16:17 53° NE visible
19 Jul ? 01:51:17 10° NW 01:52:56 12° WNW 01:53:42 11° WNW visible
20 Jul ? 00:33:56 10° N 00:37:36 56° NNW 00:37:36 56° NNW visible
20 Jul ? 23:19:47 10° NE 23:21:30 16° ENE 23:21:30 16° ENE visible
21 Jul ? 00:55:15 10° N 00:58:55 39° NW 00:58:55 39° NW visible
21 Jul ? 23:40:15 10° NE 23:42:49 26° ENE 23:42:49 26° ENE visible
22 Jul ? 01:16:46 10° NNW 01:20:14 25° WNW 01:20:14 25° WNW visible
23 Jul ? 00:01:04 10° NNE 00:04:07 39° NE 00:04:07 39° NE visible
23 Jul ? 01:38:39 10° NNW 01:41:17 16° WNW 01:41:32 16° WNW visible
24 Jul ? 00:22:05 10° NNE 00:25:25 51° NNE 00:25:25 51° NNE visible
24 Jul ? 23:08:38 10° ENE 23:09:17 12° ENE 23:09:17 12° ENE visible
25 Jul ? 00:43:16 10° N 00:46:42 45° NNW 00:46:42 45° NNW visible
25 Jul ? 23:28:42 10° NE 23:30:34 19° ENE 23:30:34 19° ENE visible
